Location: Arboyeti
(42.1122°N, 44.6017°E)
Time: 01:01:05
(UTC+00:00)

ISS - Pass Details

Date: 30 September 2021
Orbit: 417 x 423 km, 51.6° (Epoch: 24 October)

Event Time Altitude Azimuth Distance (km) Brightness Sun altitude
Rises 15:55:36 0° 307° (NW) 2,365 1.2 -13.9°
Reaches altitude 10° 15:57:57 10° 322° (NW) 1,500 -0.3 -14.3°
Maximum altitude 16:00:47 24° 19° (NNE) 904 -2.2 -14.9°
Enters shadow 16:01:52 21° 49° (NE) 1,012 -2.2 -15.1°
